Showing default

COSMOS 2254, 22689

Orbit data source: Space-Track

COSMOS 2254, 22689 is a payload satellite owned by VKS (CIS) in LEO that was launched on Thu, 24 Jun 1993 UTC via a TSIKLON-3 launch vehicle from the Plesetsk Missile And Space Complex (PKMTR). Payload-class satellites include a variety of spacecraft equipped with specific instruments for various scientific and technological missions. These include communications satellites like Starlink; space stations such as the ISS; scientific satellites like the Hubble; Earth observation satellites from companies like Planet Labs, Umbra, and HawkEye 360; GPS; miniature CubeSats for education and research; and military/defense satellites.

Loading next visibility...
Identifier
22689, 1993-038C
Orbit
LEO
Last TLE update
6 hours ago
Origin
Manufacturer
NPO PM
Mission
Defense Communications
Bus & Motor
STRELA-3, Unknown motor
Mass
225 kg wet, 225 kg dry
Launch date (UTC)
1993-06-24 (32 years ago)
Launch vehicle
TSIKLON-3
Launch site
Plesetsk Missile And Space Complex (PKMTR)
Object type
Payload
Rocket body
Debris
Shape & HBR
Cyl, 1.6 m
Radar Cross Section
1.257 m², Large (>1 m²)

Expand to show TLE details & history

TLE from 6 hours ago
0 COSMOS 2254
1 22689U 93038C   25192.12031789  .00000042  00000-0  16704-3 0  9997
2 22689  82.5797  62.6843 0012328  10.7544 104.3063 12.64902200479668
Epoch: 2025-07-11T02:53Z
TLE epoch observation values (Epoch: 2025-07-11T02:53:15.465Z)
Latitude
63.88411°
Longitude
-105.23526°
Altitude
1,416.125 km
Speed
7.157 km/s
True Right ascension
15h 09m 25s
True Declination
63° 45' 34"
Sunlit
Object was in daylight at epoch
Visualization orbit readout
Latitude
82.59949°
Longitude
-176.21272°
Altitude
1,414.707 km
Speed
7.161 km/s
Apparent Right ascension
09h 01m 34s
Apparent Declination
31° 58' 08"
Sunlit
Object is in daylight
Visualization observer readout
Local Sidereal Time
20:44:41
Azimuth
356.236° N
Elevation
-18.009°
Doppler factor
1
Orbital elements
Apogee altitude
1,409.682 km
Perigee altitude
1,390.504 km
Semi-major axis
7,778.23 km
Eccentricity
0.00123
Inclination
82.5797°
RAAN
62.6843°
Arg. of periapsis
10.7544°
True anomaly
Unknown
Mean anomaly
104.3063°
Eccentric anomaly
Unknown
Mean motion
3.16389 °/min
Orbital period
113.78 mins
BSTAR
0.00016704
Loading maneuver chart data...
Loading SW <> Apogee altitude chart data...
Loading historical data...
Loading historical data...
Loading historical data...
Loading historical data...
Loading historical data...
Loading historical data...
Loading historical data...

COSMOS 2254 Visibility forecast

Observer location: undefined°, undefined°

Span
Click to sort rows by Start time (UTC) header in descending order
Start Az.
Max El. time (UTC)
Max El. Az.
Max El.
End time (UTC)
End Az.
15 mins2025-07-11 15:39:08.465Z168.504° S2025-07-11 15:47:08.465Z79.516° E41.107°2025-07-11 15:54:08.465Z15.508° NNE
11 mins2025-07-11 17:37:08.465Z245.584° WSW2025-07-11 17:42:08.465Z292.156° WNW24.544°2025-07-11 17:48:08.465Z343.368° N
11 mins2025-07-12 01:41:08.465Z22.903° NE2025-07-12 01:46:08.465Z65.364° ENE22.035°2025-07-12 01:52:08.465Z115.072° SE
14 mins2025-07-12 03:35:08.465Z346.133° N2025-07-12 03:42:08.465Z250.975° W43.124°2025-07-12 03:49:08.465Z186.5° SSW
|